Back to catalog

OPS 4966

AliveNavigationMEO
NORAD 7963·PAYLOAD·🇺🇸 United States

Launched Jun 18, 1975 from Cape Canaveral Space Force Station

Loading…

Next Passes (next 24 hours)

TLE

FreshSource: Mike McCants

Epoch: Sep 15, 2026, 17:06 UTC

1 07963U 75055A   26258.71259035  .00000000  00000-0  00000-0 0    05
2 07963   9.8716 242.4453 1345563  71.1777 302.9174  1.00266423 24319

Track OPS 4966 in real time with AllMySat

Download on the App Store